Date,TemperatureHighF,TemperatureAvgF,TemperatureLowF,DewpointHighF,DewpointAvgF,DewpointLowF,HumidityHigh,HumidityAvg,HumidityLow,PressureMaxIn,PressureMinIn,WindSpeedMaxMPH,WindSpeedAvgMPH,GustSpeedMaxMPH,PrecipitationSumIn
2013-1-1,29.0,21.7,11.5,22.4,12.8,4.7,78,68,53,29.66,29.53,13,1,13,0.00
2013-1-2,27.5,20.1,11.3,19.1,14.1,6.4,84,77,69,29.72,29.59,7,1,7,0.00
2013-1-3,29.2,23.4,16.6,25.1,18.1,10.3,86,80,74,29.69,29.57,10,2,10,0.00
2013-1-4,31.7,27.3,22.7,23.8,20.7,17.2,83,76,66,29.71,29.53,17,4,17,0.00
2013-1-5,33.3,25.9,15.5,28.7,21.1,11.7,89,82,73,29.81,29.56,7,1,7,0.00
2013-1-6,37.4,33.3,31.5,33.7,29.4,26.6,90,86,80,29.79,29.45,12,2,12,0.00
2013-1-7,36.4,31.3,27.5,27.4,25.2,22.9,83,78,69,29.90,29.69,13,2,13,0.00
2013-1-8,39.1,28.3,20.5,30.6,23.2,16.9,88,81,70,29.78,29.69,6,0,6,0.00
2013-1-9,46.1,35.2,22.7,34.5,26.6,19.1,92,73,47,29.97,29.57,24,4,24,0.07
2013-1-10,43.7,33.1,24.1,32.3,26.8,20.4,90,78,61,30.11,29.74,8,2,8,0.07
2013-1-11,55.1,43.4,34.9,51.8,40.7,31.9,95,91,84,29.73,29.32,12,2,12,0.52
2013-1-12,58.7,49.0,41.6,52.0,45.7,39.3,95,88,76,29.50,29.38,9,1,9,0.00
2013-1-13,49.3,39.2,31.0,47.6,36.7,28.2,94,91,87,29.58,29.25,9,2,9,0.61
2013-1-14,31.0,24.8,16.6,28.2,18.6,12.3,89,77,67,29.96,29.58,15,2,15,0.00
2013-1-15,31.3,21.4,12.6,23.1,16.1,9.2,88,80,69,29.96,29.68,4,0,4,0.00
2013-1-16,38.5,28.8,19.6,27.2,20.0,15.5,89,71,45,29.68,29.34,14,3,14,0.00
2013-1-17,36.4,29.9,18.0,28.1,20.9,7.9,84,69,56,29.84,29.48,11,2,12,0.00
2013-1-18,33.7,24.0,11.9,23.7,15.2,5.2,82,69,57,29.95,29.51,14,2,14,0.00
2013-1-19,47.7,39.3,31.3,34.9,29.7,23.2,76,68,58,29.51,29.11,15,4,15,0.01
2013-1-20,43.6,23.6,16.2,34.7,11.4,5.3,73,59,46,29.70,29.09,24,5,24,0.00
2013-1-21,19.8,14.0,4.3,12.0,4.7,-4.9,80,66,51,29.67,29.47,17,2,17,0.00
2013-1-22,11.5,5.3,-1.1,0.3,-4.3,-10.6,74,64,54,29.78,29.62,13,2,13,0.00
2013-1-23,20.5,11.3,2.0,11.5,3.9,-4.6,79,72,65,29.79,29.60,10,1,10,0.00
2013-1-24,21.4,13.7,7.9,10.1,4.9,-0.6,84,69,45,30.09,29.63,8,1,8,0.00
2013-1-25,25.0,18.2,13.5,17.6,11.5,4.6,82,75,67,30.02,29.54,7,1,7,0.00
2013-1-26,28.8,21.6,14.8,18.6,14.3,8.0,85,74,56,29.97,29.58,9,1,9,0.01
2013-1-27,31.3,21.1,10.1,26.8,14.9,5.9,91,78,61,30.00,29.67,10,1,10,0.00
2013-1-28,43.2,35.9,29.3,41.3,33.6,26.7,93,91,88,29.70,29.40,6,1,6,0.04
2013-1-29,54.2,43.8,34.9,53.0,42.1,32.2,96,94,90,29.57,29.04,10,2,10,0.75
2013-1-30,58.1,49.8,34.6,55.8,47.5,30.7,95,92,84,29.05,28.69,18,3,18,0.55
2013-1-31,33.3,23.2,16.2,28.6,15.8,10.4,83,73,61,29.40,28.78,21,6,21,0.00
2013-2-1,21.6,15.6,10.1,11.6,8.5,2.8,84,74,59,29.78,29.40,12,3,12,0.00
2013-2-2,26.6,17.5,10.6,20.4,12.1,4.4,84,79,75,29.73,29.47,8,1,8,0.00
2013-2-3,25.2,14.5,3.1,17.4,8.3,-1.3,84,76,68,29.54,29.37,11,1,11,0.00
2013-2-4,26.5,19.7,15.8,19.5,14.1,7.7,84,79,70,29.55,29.41,5,1,5,0.00
2013-2-5,30.6,23.6,17.3,24.1,18.1,13.1,88,80,62,29.48,29.34,10,1,10,0.02
2013-2-6,34.7,23.6,11.7,23.3,16.3,8.0,88,74,56,29.83,29.47,9,1,9,0.02
2013-2-7,40.7,30.6,23.8,28.9,23.0,17.7,84,73,62,29.82,29.42,12,3,12,0.02
2013-2-8,29.5,26.9,22.0,26.8,22.3,15.9,92,83,75,29.87,29.31,15,3,15,0.00
2013-2-9,34.9,21.9,9.9,22.5,15.2,6.5,89,76,56,29.96,29.82,6,1,6,0.09
2013-2-10,40.7,28.8,15.7,33.7,23.3,11.9,91,81,62,29.83,29.25,10,2,10,0.21
2013-2-11,43.4,36.7,31.9,41.5,30.8,25.4,93,79,68,29.40,29.10,22,6,22,0.09
2013-2-12,34.4,31.1,28.6,25.9,23.8,21.6,79,74,69,29.58,29.40,18,4,18,0.00
2013-2-13,41.4,31.4,26.6,29.3,23.6,20.6,81,73,58,29.47,29.27,8,1,8,0.00
2013-2-14,38.9,32.9,23.9,34.7,28.4,20.1,89,84,76,29.37,29.23,18,3,18,0.02
2013-2-15,34.2,28.5,23.4,28.0,18.5,13.3,78,66,53,29.65,29.37,12,2,12,0.00
2013-2-16,30.4,21.2,13.3,19.5,13.5,8.0,80,72,60,29.64,29.50,10,1,10,0.00
2013-2-17,24.8,16.1,8.3,13.1,7.2,3.4,86,69,50,29.74,29.57,11,1,11,0.01
2013-2-18,43.0,29.2,12.1,34.2,20.4,4.9,80,70,59,29.74,29.16,15,2,15,0.00
2013-2-19,43.2,29.5,18.4,39.2,23.2,9.8,92,77,66,29.45,28.97,20,6,20,0.17
2013-2-20,24.1,19.9,15.8,15.0,11.5,8.9,82,70,59,29.75,29.45,14,3,14,0.00
2013-2-21,28.8,21.9,19.4,18.2,14.3,12.6,83,73,59,29.91,29.75,14,2,14,0.01
2013-2-22,33.1,27.5,21.8,31.1,24.2,17.4,92,87,82,29.81,29.43,14,3,14,0.00
2013-2-23,36.7,31.6,26.3,30.2,24.0,19.2,91,74,60,29.46,29.40,11,3,11,0.02
2013-2-24,38.5,28.7,21.2,27.9,21.8,16.6,85,75,62,29.68,29.43,10,2,10,0.06
2013-2-25,43.6,29.5,16.9,30.3,21.3,13.6,91,73,51,29.76,29.64,7,1,7,0.03
2013-2-26,37.1,31.5,27.0,31.3,26.3,19.8,94,81,66,29.67,29.07,20,4,20,0.21
2013-2-27,37.6,34.3,32.8,35.3,32.2,31.0,95,92,89,29.13,29.00,9,1,9,0.17
2013-2-28,38.9,33.9,29.5,33.2,29.7,24.4,93,85,75,29.50,29.09,12,2,12,0.36
2013-3-1,29.5,26.6,24.8,24.7,21.3,19.3,83,80,76,29.63,29.49,10,2,10,0.00
2013-3-2,27.7,25.0,23.2,21.2,19.1,15.2,82,78,69,29.60,29.56,10,2,10,0.00
2013-3-3,30.8,23.3,16.7,18.5,15.6,11.2,82,73,56,29.58,29.51,11,2,11,0.02
2013-3-4,39.1,24.9,12.6,21.7,15.0,7.8,86,68,42,29.67,29.57,7,1,7,0.05
2013-3-5,38.2,27.8,19.4,26.3,20.5,12.4,87,74,60,29.67,29.38,14,3,14,0.02
2013-3-6,43.2,34.0,26.3,31.7,26.9,21.8,87,76,61,29.75,29.38,10,1,10,0.00
2013-3-7,37.8,33.2,26.3,30.4,26.2,18.3,87,75,65,29.93,29.73,8,1,8,0.00
2013-3-8,47.5,32.6,21.8,31.6,23.1,16.1,84,69,49,30.02,29.92,6,1,6,0.00
2013-3-9,46.1,35.4,24.1,33.5,27.7,20.6,89,74,56,29.96,29.60,10,2,10,0.00
2013-3-10,62.5,49.1,34.0,47.6,38.3,29.4,84,68,51,29.59,29.37,9,2,10,0.01
2013-3-11,53.1,48.2,37.8,46.7,42.5,32.0,91,81,64,29.39,29.03,18,3,18,0.40
2013-3-12,39.1,34.9,29.2,32.6,29.2,24.3,85,80,72,29.45,29.23,16,3,16,0.02
2013-3-13,33.8,29.7,26.1,26.8,21.2,15.8,87,71,52,29.70,29.38,12,3,12,0.02
2013-3-14,42.5,30.7,21.1,23.8,17.9,13.4,76,60,43,29.78,29.61,11,2,11,0.00
2013-3-15,40.0,34.7,29.7,33.2,27.9,19.5,91,76,60,29.61,29.39,12,2,12,0.07
2013-3-16,35.8,29.7,24.3,31.2,24.9,18.1,92,82,68,29.57,29.31,8,1,8,0.01
2013-3-17,34.6,27.3,21.1,22.8,17.1,11.9,83,66,50,29.80,29.56,11,2,11,0.06
2013-3-18,34.7,29.3,21.1,32.7,25.4,14.1,93,85,74,29.73,29.10,15,4,15,0.01
2013-3-19,34.4,27.8,23.9,30.8,20.5,16.6,88,74,61,29.46,29.15,20,6,20,0.00
2013-3-20,31.0,25.1,17.6,19.1,15.2,9.8,73,66,54,29.47,29.41,13,3,13,0.00
2013-3-21,33.8,24.7,15.1,25.7,17.9,9.2,84,75,64,29.46,29.37,12,2,12,0.00
2013-3-22,41.0,31.5,25.4,25.1,20.6,17.5,75,64,50,29.56,29.45,11,2,11,0.01
2013-3-23,41.6,31.5,22.7,27.2,22.7,17.9,87,71,53,29.64,29.55,7,1,7,0.00
2013-3-24,38.3,30.1,22.7,28.3,23.0,17.9,88,75,54,29.60,29.19,16,2,16,0.00
2013-3-25,41.4,34.7,31.0,28.9,26.2,23.7,79,71,59,29.45,29.11,15,2,15,0.00
2013-3-26,45.7,36.9,32.8,32.0,29.0,26.3,81,73,54,29.64,29.45,12,2,12,0.00
2013-3-27,49.7,38.9,29.2,30.9,26.7,23.7,82,63,42,29.73,29.64,12,3,12,0.00
2013-3-28,53.3,41.0,30.6,31.4,26.1,21.6,75,57,37,29.80,29.73,14,2,14,0.00
2013-3-29,55.3,40.7,29.5,27.6,23.3,20.3,71,52,30,29.82,29.73,10,1,10,0.00
2013-3-30,58.5,42.7,26.3,30.9,24.8,18.7,76,52,27,29.76,29.49,12,2,12,0.00
2013-3-31,59.6,45.9,34.2,43.8,33.5,24.5,81,64,38,29.49,29.17,17,2,17,0.04
2013-4-1,43.4,33.4,26.8,33.7,19.2,13.2,80,57,36,29.61,29.22,13,3,13,0.01
2013-4-2,42.7,31.6,22.3,18.4,14.9,11.9,77,52,33,29.76,29.61,14,2,14,0.00
2013-4-3,44.3,32.0,22.1,18.5,14.1,10.4,71,49,30,29.94,29.76,12,2,12,0.00
2013-4-4,58.3,39.4,23.0,25.1,19.2,13.9,71,48,23,29.88,29.48,9,2,9,0.00
2013-4-5,48.6,41.4,31.3,30.6,22.5,17.9,78,48,31,29.76,29.47,11,2,11,0.00
2013-4-6,52.2,39.5,27.5,26.7,22.4,17.2,71,52,34,29.80,29.35,12,3,12,0.00
2013-4-7,56.7,50.3,37.8,45.6,36.4,26.9,76,59,43,29.58,29.17,19,4,19,0.00
2013-4-8,62.6,44.7,32.2,55.2,38.5,26.6,88,79,62,29.60,29.25,20,3,20,0.12
2013-4-9,50.8,45.9,41.0,45.3,41.9,37.3,93,86,75,29.65,29.44,10,2,10,0.17
2013-4-10,45.7,41.8,38.2,43.3,39.7,36.0,95,92,89,29.55,29.38,9,2,9,0.44
2013-4-11,38.9,37.2,35.6,36.7,35.2,33.4,94,93,89,29.53,29.19,18,4,18,1.08
2013-4-12,44.3,39.1,35.1,40.9,35.8,33.3,94,88,74,29.32,29.06,13,2,13,0.27
2013-4-13,44.3,39.2,36.4,37.0,31.6,27.2,89,74,60,29.54,29.32,15,4,15,0.03
2013-4-14,49.0,39.5,30.4,39.3,32.1,24.8,82,75,65,29.66,29.50,11,2,11,0.02
2013-4-15,70.9,54.2,36.7,53.7,44.8,32.8,88,72,52,29.53,29.44,12,2,12,0.03
2013-4-16,63.0,55.3,47.9,53.1,44.1,34.5,89,68,42,29.78,29.43,11,2,11,0.06
2013-4-17,59.2,47.5,39.2,43.1,35.8,30.0,90,65,44,29.89,29.59,14,3,14,0.63
2013-4-18,79.4,58.0,43.4,65.5,53.2,40.7,91,85,59,29.60,29.14,23,4,23,0.68
2013-4-19,58.3,45.7,36.7,55.6,39.3,29.4,93,78,63,29.28,28.89,22,6,22,0.40
2013-4-20,41.6,35.2,28.1,30.3,23.0,17.9,85,62,47,29.96,29.28,13,4,13,0.01
2013-4-21,50.8,36.9,23.2,32.5,24.7,18.9,88,63,40,30.14,29.96,12,2,12,0.00
2013-4-22,64.4,46.4,29.3,39.2,30.2,20.7,87,57,28,30.02,29.75,10,2,10,0.00
2013-4-23,72.4,55.3,38.5,51.8,41.6,31.6,84,62,40,29.75,29.37,13,2,13,0.15
2013-4-24,55.1,41.1,35.1,52.1,37.4,29.0,92,87,75,29.67,29.29,11,2,11,0.52
2013-4-25,52.6,40.1,27.5,42.6,31.0,23.8,89,72,45,29.88,29.64,13,2,13,0.07
2013-4-26,63.0,46.3,29.3,41.7,33.3,24.8,85,63,44,30.00,29.88,11,2,11,0.00
2013-4-27,70.6,54.0,34.2,44.6,36.9,29.8,89,56,26,29.92,29.67,13,2,13,0.00
2013-4-28,56.5,52.3,46.4,52.0,44.7,32.2,93,76,51,29.67,29.40,7,1,7,0.34
2013-4-29,72.2,60.4,52.9,57.2,52.9,50.6,93,78,58,29.51,29.40,7,1,7,0.02
2013-4-30,72.5,61.1,51.3,59.6,53.3,47.8,91,76,58,29.65,29.50,16,2,16,0.08
2013-5-1,82.6,65.9,48.6,61.5,53.9,46.1,94,68,43,29.81,29.64,11,2,11,0.01
2013-5-2,80.3,66.0,52.2,58.4,50.6,44.2,82,59,39,29.82,29.71,12,2,12,0.00
2013-5-3,78.8,66.6,55.3,58.1,45.3,35.5,62,48,25,29.71,29.64,14,3,14,0.00
2013-5-4,71.5,62.7,52.9,47.5,43.3,38.3,74,51,34,29.70,29.64,15,3,15,0.00
2013-5-5,73.4,61.9,50.0,47.2,41.0,33.1,76,49,25,29.68,29.60,14,3,14,0.00
2013-5-6,74.9,61.4,46.4,52.0,43.4,36.7,75,53,39,29.63,29.55,15,2,15,0.00
2013-5-7,77.8,63.4,49.5,56.5,46.7,37.8,71,56,39,29.63,29.56,14,2,14,0.00
2013-5-8,82.4,66.0,51.8,55.7,49.5,43.7,77,57,36,29.60,29.50,12,1,12,0.00
2013-5-9,83.7,68.2,49.3,57.1,50.7,44.6,90,57,33,29.53,29.46,8,1,8,0.00
2013-5-10,72.5,60.2,42.5,62.5,52.3,38.3,89,76,52,29.48,29.32,10,2,10,0.29
2013-5-11,64.3,49.2,39.2,50.8,41.4,31.4,88,75,56,29.44,29.27,14,2,14,0.00
2013-5-12,50.4,41.7,34.0,34.1,29.9,23.2,82,64,47,29.63,29.40,12,3,12,0.00
2013-5-13,58.0,43.0,27.7,33.9,26.8,21.4,79,55,33,29.71,29.63,11,1,11,0.00
2013-5-14,76.7,55.1,39.2,52.1,40.4,28.3,73,59,39,29.66,29.31,11,2,11,0.00
2013-5-15,83.3,68.7,50.0,60.3,49.8,45.3,88,55,30,29.37,29.15,12,2,12,0.00
2013-5-16,83.9,67.7,51.5,53.8,46.1,37.1,72,48,28,29.60,29.36,4,0,4,0.00
2013-5-17,75.6,61.5,47.3,49.0,43.5,36.6,73,53,34,29.73,29.60,0,0,0,0.00
2013-5-18,81.9,65.9,54.4,51.4,45.5,42.0,67,49,29,29.73,29.61,0,0,0,0.00
2013-5-19,87.8,71.0,53.3,67.7,56.1,43.7,75,60,46,29.63,29.47,0,0,0,0.02
2013-5-20,89.8,75.8,59.9,73.4,64.1,55.5,88,69,45,29.52,29.36,0,0,0,0.03
2013-5-21,86.4,76.4,68.0,69.0,63.2,60.1,83,65,46,29.41,29.30,0,0,0,0.02
2013-5-22,81.4,70.1,63.0,67.1,62.1,58.4,87,77,51,29.34,29.20,0,0,0,0.18
2013-5-23,64.8,53.4,41.8,60.6,49.5,36.9,92,87,80,29.69,29.26,0,0,0,0.04
2013-5-24,55.8,46.0,38.0,39.7,35.2,31.5,89,67,47,29.89,29.69,0,0,0,0.01
2013-5-25,67.0,50.7,32.8,43.3,36.3,28.9,90,61,37,29.93,29.82,0,0,0,0.00
2013-5-26,71.3,55.3,36.0,43.8,37.2,30.8,88,54,32,29.89,29.78,0,0,0,0.00
2013-5-27,65.5,51.5,38.9,48.3,41.3,32.9,91,70,39,29.82,29.58,0,0,0,0.49
2013-5-28,72.5,61.0,50.8,68.3,57.9,47.9,93,90,85,29.58,29.38,0,0,0,0.30
2013-5-29,85.3,74.0,64.8,68.8,64.6,60.2,88,73,51,29.58,29.34,0,0,0,0.01
2013-5-30,88.4,72.5,61.9,73.7,65.6,58.4,91,80,58,29.64,29.55,0,0,0,0.46
2013-5-31,82.8,72.4,63.4,71.4,65.9,60.5,93,81,62,29.58,29.44,0,0,0,0.02
2013-6-1,83.2,71.5,63.4,70.0,64.0,60.0,92,78,57,29.44,29.27,0,0,0,0.31
2013-6-2,75.6,65.9,53.8,62.6,56.5,43.9,87,72,54,29.55,29.23,0,0,0,0.00
2013-6-3,70.2,56.8,42.3,48.2,42.1,36.5,84,60,38,29.64,29.54,0,0,0,0.00
2013-6-4,74.0,59.5,45.2,51.0,44.2,36.5,87,59,39,29.75,29.64,0,0,0,0.00
2013-6-5,75.8,61.7,46.4,50.9,43.9,35.9,73,53,37,29.74,29.56,0,0,0,0.00
2013-6-6,70.0,60.6,54.9,55.9,48.1,42.1,73,63,57,29.57,29.42,0,0,0,0.00
2013-6-7,64.8,57.1,49.7,54.5,50.0,44.6,87,77,69,29.48,29.42,0,0,0,0.00
2013-6-8,76.0,63.7,55.6,58.8,52.5,49.3,81,68,51,29.65,29.47,0,0,0,0.00
2013-6-9,77.9,63.3,53.6,59.9,53.3,48.6,86,71,53,29.68,29.53,0,0,0,0.00
2013-6-10,72.5,64.3,59.6,67.1,59.7,51.8,91,85,61,29.53,29.31,0,0,0,1.50
2013-6-11,84.4,71.6,63.4,67.5,63.4,60.5,92,77,53,29.45,29.33,0,0,0,0.00
2013-6-12,76.9,70.5,61.9,68.0,64.0,57.7,89,80,73,29.51,29.23,0,0,0,0.46
2013-6-13,77.8,68.5,60.3,62.2,58.4,53.8,93,72,46,29.49,29.12,0,0,0,1.37
2013-6-14,78.8,67.2,58.0,59.0,54.0,49.5,82,64,42,29.64,29.49,0,0,0,0.26
2013-6-15,84.1,67.6,52.9,65.6,57.4,48.3,90,71,50,29.65,29.50,0,0,0,0.00
2013-6-16,83.3,71.6,62.6,68.1,60.8,52.6,91,70,43,29.51,29.34,0,0,0,0.24
2013-6-17,88.9,72.6,59.2,66.1,58.3,51.5,80,63,40,29.50,29.41,0,0,0,0.00
2013-6-18,74.5,64.2,54.2,58.2,51.6,40.3,89,66,41,29.65,29.46,0,0,0,0.06
2013-6-19,77.8,63.4,48.8,55.1,47.7,38.5,78,58,39,29.73,29.63,0,0,0,0.00
2013-6-20,85.0,67.8,49.5,60.9,53.5,44.8,89,63,39,29.78,29.71,0,0,0,0.00
2013-6-21,88.0,71.8,54.9,69.3,59.4,49.7,86,66,48,29.78,29.63,0,0,0,0.01
2013-6-22,91.4,75.8,65.2,75.4,65.8,58.4,80,72,58,29.68,29.56,0,0,0,0.00
2013-6-23,91.3,79.0,66.1,72.0,67.4,62.4,90,70,49,29.64,29.55,0,0,0,0.00
2013-6-24,91.4,78.4,65.5,73.8,67.0,60.4,86,69,53,29.64,29.50,0,0,0,0.00
2013-6-25,87.1,75.1,67.3,74.1,67.2,61.4,88,77,61,29.56,29.40,0,0,0,0.38
2013-6-26,89.1,76.0,64.6,73.6,67.7,61.4,91,77,57,29.47,29.33,0,0,0,0.05
2013-6-27,87.8,73.7,65.2,73.3,67.2,61.7,91,81,56,29.34,29.21,0,0,0,0.80
2013-6-28,78.5,67.9,63.7,69.8,63.7,60.7,93,87,68,29.22,29.10,0,0,0,0.64
2013-6-29,77.8,68.4,62.5,66.2,61.3,54.7,93,79,62,29.32,29.12,0,0,0,0.00
2013-6-30,79.6,69.4,59.8,63.9,57.8,46.2,87,68,50,29.52,29.32,0,0,0,0.00
2013-7-1,67.7,63.0,58.3,58.5,54.4,46.6,90,74,57,29.63,29.51,0,0,0,0.32
2013-7-2,77.4,66.4,58.1,64.3,59.0,54.3,88,77,60,29.65,29.58,0,0,0,0.00
2013-7-3,86.6,71.5,58.9,71.7,63.1,55.3,90,76,53,29.67,29.61,0,0,0,0.00
2013-7-4,85.0,75.5,68.6,69.9,66.0,63.1,90,73,56,29.71,29.64,0,0,0,0.00
2013-7-5,86.8,75.6,68.8,69.6,65.9,61.7,90,73,49,29.68,29.63,0,0,0,0.00
2013-7-6,87.1,75.4,65.5,73.2,67.3,61.7,91,77,58,29.69,29.58,0,0,0,0.09
2013-7-7,82.1,74.1,68.8,73.8,68.3,65.4,91,83,68,29.61,29.53,0,0,0,0.34
2013-7-8,86.0,73.0,66.1,76.1,68.1,62.8,91,85,70,29.61,29.55,0,0,0,0.61
2013-7-9,91.1,77.3,70.6,75.9,70.7,67.2,93,81,55,29.56,29.45,0,0,0,0.06
2013-7-10,90.7,78.2,67.7,77.6,69.7,56.7,94,76,53,29.51,29.34,0,0,0,0.26
2013-7-11,79.6,69.6,58.1,61.1,56.4,53.0,84,64,48,29.64,29.51,0,0,0,0.00
2013-7-12,84.2,69.4,54.4,64.9,57.6,49.8,92,68,45,29.72,29.64,0,0,0,0.00
2013-7-13,71.8,63.7,59.9,65.6,57.8,55.4,90,81,72,29.77,29.71,0,0,0,0.00